This is the latest recevied weather packets stored in our database for station/object SM0PQB-13. If no packets are shown the sender has not sent any weather packets the latest 10 day(s).
| Time | Temp. | Humidity | Pressure | Rain* | Wind** | Luminosity | Snow |
|---|---|---|---|---|---|---|---|
| 1777880952 | 22.22° C | 39% | 1001.5 hPa | - | - | - | - |
| 1777880352 | 21.67° C | 39% | 1001.5 hPa | - | - | - | - |
| 1777879752 | 22.22° C | 39% | 1001.5 hPa | - | - | - | - |
| 1777879152 | 21.11° C | 39% | 1001 hPa | - | - | - | - |
| 1777878552 | 21.11° C | 39% | 1001.7 hPa | - | - | - | - |
| 1777877952 | 21.11° C | 39% | 1001.9 hPa | - | - | - | - |
| 1777877352 | 21.11° C | 40% | 1002 hPa | - | - | - | - |
| 1777876752 | 21.11° C | 39% | 1002.2 hPa | - | - | - | - |
| 1777876153 | 21.11° C | 40% | 1002.4 hPa | - | - | - | - |
| 1777875552 | 21.11° C | 40% | 1002.5 hPa | - | - | - | - |
| 1777874952 | 20.56° C | 40% | 1002.4 hPa | - | - | - | - |
| 1777874352 | 21.11° C | 40% | 1002.7 hPa | - | - | - | - |
| 1777873752 | 20.56° C | 37% | 1002.7 hPa | - | - | - | - |
| 1777873152 | 20.56° C | 36% | 1002.8 hPa | - | - | - | - |
| 1777872552 | 20.56° C | 36% | 1002.9 hPa | - | - | - | - |
| 1777871952 | 21.11° C | 36% | 1003 hPa | - | - | - | - |
| 1777871352 | 20.56° C | 36% | 1003 hPa | - | - | - | - |
| 1777870752 | 21.11° C | 36% | 1003.1 hPa | - | - | - | - |
| 1777870152 | 20.56° C | 36% | 1003.2 hPa | - | - | - | - |
| 1777869553 | 20.56° C | 36% | 1002.8 hPa | - | - | - | - |
| 1777868952 | 21.11° C | 36% | 1003.1 hPa | - | - | - | - |
| 1777868352 | 21.11° C | 36% | 1003.2 hPa | - | - | - | - |
| 1777867752 | 21.11° C | 36% | 1003.3 hPa | - | - | - | - |
| 1777867152 | 21.11° C | 36% | 1003 hPa | - | - | - | - |
| 1777866554 | 21.11° C | 36% | 1003.1 hPa | - | - | - | - |
* Rain since midnight (hover to see other rain measurements)
** Current wind speed in m/s (hover to see current wind gust speed)